Voltar ao catálogo

METEOR 1-11 DEB

LostPO
NORAD 45503·DEBRIS·🇷🇺 Russia

Lançado Mar 30, 1972 de Plesetsk Cosmodrome

Loading…

Próximas Passagens (próximas 24 horas)

TLE

ObsoletoSource: Space-Track

Época: Mar 31, 2023, 07:02 UTC

1 45503U 72022F   23090.29364940  .00012576  00000-0  52908-2 0  9998
2 45503  81.2172 302.4850 0037262 283.2633  76.4392 14.25333441348308

Acompanhe METEOR 1-11 DEB em tempo real com AllMySat

Download on the App Store